When you browse on this site, cookies collect data to enhance your experience and personalize the content and advertising you see.
Visit our Privacy Policy to learn more. By continuing to use the site, you agree to this use of cookies and data.
  • In Hungary
  • List of Countries
  • For 7 days
  • Water Temperature
  • Weather Map
  • News
  • Weather Widgets
  • user-avatar
    Login

    Hourly Weather Fredonia

    Today, 22 August, Thursday

    Time Temperature Precipitation Wind Pressure Humidity
    00:00 +15°C° 0 mm 1 mps 616 mmHg 86%
    01:00 +14°C° 0 mm 0 mps 616 mmHg 88%
    02:00 +13°C° 0 mm 0 mps 616 mmHg 89%
    03:00 +13°C° 0 mm 0 mps 616 mmHg 91%
    04:00 +13°C° 0 mm 0 mps 616 mmHg 92%
    05:00 +13°C° 0 mm 0 mps 616 mmHg 90%
    06:00 +14°C° 0 mm 0 mps 616 mmHg 89%
    07:00 +15°C° 0 mm 0 mps 617 mmHg 87%
    08:00 +17°C° 0 mm 0 mps 618 mmHg 75%
    09:00 +20°C° 0 mm 0 mps 619 mmHg 64%
    10:00 +25°C° 0 mm 1 mps 620 mmHg 52%
    11:00 +26°C° 0 mm 1 mps 620 mmHg 47%
    12:00 +28°C° 0 mm 1 mps 619 mmHg 42%
    13:00 +29°C° 0 mm 1 mps 619 mmHg 37%
    14:00 +29°C° 0 mm 1 mps 619 mmHg 38%
    15:00 +29°C° 0 mm 1 mps 618 mmHg 38%
    16:00 +29°C° 0 mm 1 mps 618 mmHg 39%
    17:00 +26°C° 0 mm 1 mps 617 mmHg 50%
    18:00 +23°C° 0 mm 1 mps 616 mmHg 62%
    19:00 +20°C° 0 mm 1 mps 616 mmHg 74%
    20:00 +19°C° 0 mm 1 mps 616 mmHg 77%
    21:00 +18°C° 0 mm 1 mps 616 mmHg 80%
    22:00 +16°C° 0 mm 1 mps 617 mmHg 83%
    23:00 +16°C° 0 mm 1 mps 616 mmHg 84%

    Tomorrow, 23 August, Friday

    Time Temperature Precipitation Wind Pressure Humidity
    00:00 +14°C° 0 mm 0 mps 616 mmHg 85%
    01:00 +14°C° 0 mm 0 mps 616 mmHg 87%
    02:00 +14°C° 0 mm 0 mps 615 mmHg 87%
    03:00 +13°C° 0 mm 0 mps 615 mmHg 88%
    04:00 +13°C° 0 mm 0 mps 615 mmHg 89%
    05:00 +14°C° 0 mm 0 mps 615 mmHg 87%
    06:00 +14°C° 0 mm 0 mps 616 mmHg 85%
    07:00 +15°C° 0 mm 0 mps 616 mmHg 83%
    08:00 +18°C° 0 mm 0 mps 617 mmHg 72%
    09:00 +22°C° 0 mm 1 mps 619 mmHg 62%
    10:00 +25°C° 0 mm 1 mps 620 mmHg 51%
    11:00 +27°C° 0 mm 1 mps 619 mmHg 47%
    12:00 +28°C° 0 mm 1 mps 619 mmHg 42%
    13:00 +29°C° 0 mm 1 mps 619 mmHg 37%
    14:00 +29°C° 0 mm 1 mps 618 mmHg 39%
    15:00 +29°C° 0 mm 1 mps 618 mmHg 41%
    16:00 +28°C° 0 mm 1 mps 617 mmHg 43%
    17:00 +25°C° 0.1 mm 1 mps 617 mmHg 53%
    18:00 +23°C° 0.1 mm 1 mps 616 mmHg 64%
    19:00 +20°C° 0.1 mm 1 mps 616 mmHg 75%
    20:00 +19°C° 0.5 mm 1 mps 616 mmHg 78%
    21:00 +18°C° 0.5 mm 1 mps 616 mmHg 82%
    22:00 +16°C° 0.5 mm 1 mps 616 mmHg 85%
    23:00 +16°C° 0.2 mm 1 mps 616 mmHg 87%

    Day after tomorrow, 24 August, Saturday

    Time Temperature Precipitation Wind Pressure Humidity
    00:00 +15°C° 0.2 mm 1 mps 615 mmHg 88%
    01:00 +14°C° 0.2 mm 0 mps 615 mmHg 90%
    02:00 +14°C° 0 mm 0 mps 615 mmHg 91%
    03:00 +14°C° 0 mm 0 mps 615 mmHg 92%
    04:00 +13°C° 0 mm 0 mps 615 mmHg 93%
    05:00 +14°C° 0 mm 0 mps 615 mmHg 92%
    06:00 +14°C° 0 mm 0 mps 616 mmHg 90%
    07:00 +15°C° 0 mm 0 mps 616 mmHg 89%
    08:00 +18°C° 0 mm 0 mps 617 mmHg 78%
    09:00 +20°C° 0 mm 0 mps 618 mmHg 67%
    10:00 +25°C° 0 mm 1 mps 619 mmHg 55%
    11:00 +26°C° 0.3 mm 1 mps 619 mmHg 53%
    12:00 +27°C° 0.3 mm 1 mps 619 mmHg 50%
    13:00 +28°C° 0.3 mm 1 mps 618 mmHg 47%
    14:00 +28°C° 0.4 mm 1 mps 618 mmHg 48%
    15:00 +28°C° 0.4 mm 1 mps 617 mmHg 50%
    16:00 +27°C° 0.4 mm 1 mps 617 mmHg 51%
    17:00 +25°C° 0.5 mm 1 mps 616 mmHg 62%
    18:00 +22°C° 0.5 mm 1 mps 616 mmHg 73%
    19:00 +19°C° 0.5 mm 1 mps 615 mmHg 85%
    20:00 +19°C° 1.2 mm 1 mps 616 mmHg 87%
    21:00 +18°C° 1.2 mm 1 mps 616 mmHg 90%
    22:00 +16°C° 1.2 mm 1 mps 616 mmHg 92%
    23:00 +16°C° 0.7 mm 1 mps 616 mmHg 93%

    25 August, Sunday

    Time Temperature Precipitation Wind Pressure Humidity
    00:00 +16°C° 0.7 mm 1 mps 616 mmHg 94%
    01:00 +14°C° 0.7 mm 0 mps 615 mmHg 95%
    02:00 +14°C° 0 mm 0 mps 615 mmHg 95%
    03:00 +14°C° 0 mm 0 mps 615 mmHg 95%
    04:00 +14°C° 0 mm 0 mps 614 mmHg 94%
    05:00 +14°C° 0 mm 0 mps 615 mmHg 93%
    06:00 +15°C° 0 mm 0 mps 615 mmHg 92%
    07:00 +15°C° 0 mm 0 mps 616 mmHg 91%
    08:00 +18°C° 0 mm 0 mps 617 mmHg 79%
    09:00 +22°C° 0 mm 1 mps 618 mmHg 67%
    10:00 +25°C° 0 mm 1 mps 619 mmHg 55%
    11:00 +26°C° 0.2 mm 1 mps 619 mmHg 52%
    12:00 +27°C° 0.2 mm 1 mps 618 mmHg 49%
    13:00 +28°C° 0.2 mm 1 mps 618 mmHg 45%
    14:00 +28°C° 0.3 mm 1 mps 617 mmHg 48%
    15:00 +27°C° 0.3 mm 1 mps 617 mmHg 50%
    16:00 +26°C° 0.3 mm 1 mps 616 mmHg 52%
    17:00 +24°C° 0.6 mm 1 mps 616 mmHg 63%
    18:00 +21°C° 0.6 mm 1 mps 615 mmHg 74%
    19:00 +19°C° 0.6 mm 1 mps 615 mmHg 85%
    20:00 +18°C° 0.9 mm 1 mps 615 mmHg 87%
    21:00 +16°C° 0.9 mm 1 mps 615 mmHg 90%
    22:00 +16°C° 0.9 mm 1 mps 616 mmHg 92%
    23:00 +16°C° 0.5 mm 1 mps 615 mmHg 93%

    26 August, Monday

    Time Temperature Precipitation Wind Pressure Humidity
    00:00 +15°C° 0.5 mm 1 mps 615 mmHg 94%
    01:00 +14°C° 0.5 mm 0 mps 614 mmHg 94%
    02:00 +14°C° 0 mm 0 mps 614 mmHg 94%
    03:00 +14°C° 0 mm 0 mps 614 mmHg 95%
    04:00 +13°C° 0 mm 0 mps 614 mmHg 95%
    05:00 +14°C° 0 mm 0 mps 615 mmHg 94%
    06:00 +14°C° 0 mm 0 mps 615 mmHg 93%
    07:00 +15°C° 0 mm 0 mps 616 mmHg 92%
    08:00 +17°C° 0.2 mm 0 mps 617 mmHg 85%
    09:00 +19°C° 0.2 mm 0 mps 617 mmHg 78%
    10:00 +20°C° 0.2 mm 0 mps 618 mmHg 71%
    11:00 +22°C° 0.5 mm 0 mps 618 mmHg 65%
    12:00 +23°C° 0.5 mm 0 mps 618 mmHg 59%
    13:00 +25°C° 0.5 mm 0 mps 617 mmHg 53%
    14:00 +24°C° 0.6 mm 0 mps 617 mmHg 56%
    15:00 +24°C° 0.6 mm 0 mps 616 mmHg 58%
    16:00 +25°C° 0.6 mm 1 mps 616 mmHg 60%
    17:00 +23°C° 0.6 mm 1 mps 615 mmHg 69%
    18:00 +21°C° 0.6 mm 1 mps 615 mmHg 77%
    19:00 +19°C° 0.6 mm 1 mps 615 mmHg 86%
    20:00 +18°C° 0.6 mm 1 mps 615 mmHg 88%
    21:00 +18°C° 0.6 mm 1 mps 616 mmHg 90%
    22:00 +16°C° 0.6 mm 1 mps 616 mmHg 92%
    23:00 +16°C° 0.2 mm 1 mps 616 mmHg 92%

    27 August, Tuesday

    Time Temperature Precipitation Wind Pressure Humidity
    00:00 +14°C° 0.2 mm 0 mps 615 mmHg 93%
    01:00 +14°C° 0.2 mm 0 mps 615 mmHg 93%
    02:00 +14°C° 0.1 mm 0 mps 615 mmHg 93%
    03:00 +14°C° 0.1 mm 0 mps 615 mmHg 93%
    04:00 +14°C° 0.1 mm 0 mps 615 mmHg 93%
    05:00 +14°C° 0 mm 0 mps 615 mmHg 93%
    06:00 +15°C° 0 mm 0 mps 616 mmHg 93%
    07:00 +15°C° 0 mm 0 mps 616 mmHg 93%
    08:00 +17°C° 0.2 mm 0 mps 617 mmHg 83%
    09:00 +19°C° 0.2 mm 0 mps 618 mmHg 74%
    10:00 +24°C° 0.2 mm 1 mps 619 mmHg 64%
    11:00 +25°C° 0.3 mm 1 mps 618 mmHg 58%
    12:00 +26°C° 0.3 mm 1 mps 618 mmHg 52%
    13:00 +28°C° 0.3 mm 1 mps 618 mmHg 45%
    14:00 +28°C° 0.1 mm 1 mps 617 mmHg 45%
    15:00 +28°C° 0.1 mm 1 mps 617 mmHg 45%
    16:00 +27°C° 0.1 mm 1 mps 616 mmHg 44%
    17:00 +25°C° 0.2 mm 1 mps 616 mmHg 56%
    18:00 +22°C° 0.2 mm 1 mps 616 mmHg 67%
    19:00 +19°C° 0.2 mm 1 mps 615 mmHg 79%
    20:00 +18°C° 0.5 mm 1 mps 615 mmHg 83%
    21:00 +16°C° 0.5 mm 1 mps 615 mmHg 87%
    22:00 +16°C° 0.5 mm 1 mps 616 mmHg 91%
    23:00 +15°C° 0.2 mm 1 mps 615 mmHg 92%
    Show more